sat.trackr.live / text

‹ back to catalog

SWARM C

NORAD 39453 · 2013-067C

PAYLOAD ACTIVE UNKNOWN

§ Identity

Operator
Country
ESA
Launch date
2013-11-22
Launch site
PLMSC
Launch vehicle
Mass (kg)
RCS (m²)
2.37

Purposes: science

External: N2YO · Heavens-Above · Gunter

§ Orbital elements

Epoch: 2026-09-20T03:31:31.466208Z

Period
92.85 min
Inclination
87.3358°
Eccentricity
0.0002533
Mean motion
15.50853676 rev/d
Perigee alt
412.5 km
Apogee alt
416.0 km
Semi-major
6,792.4 km
B*
1.4084e-4
RAAN
19.5442°
Arg perigee
101.8140°
Mean anomaly
258.3405°
Rev number
72,092

§ Raw data

SWARM C1 39453U 13067C   26263.14689197  .00008171  00000+0  14084-3 0  99912 39453  87.3358  19.5442 0002533 101.8140 258.3405 15.50853676720926

JSON: /api/v1/satellites/39453 · /tle

For live sub-satellite position, see the globe view (requires WebGL).

§ Visibility from observer

Set your observer location to see the next 7 days of passes ≥ 10°. The values pass through the URL so the page stays shareable.

No JS? Fill the form by hand. The geolocation button needs JavaScript.

§ Radio — SatNOGS DB

ModeDescriptionDownlinkUplink
FM S-Band (2277MHz) 2.277 GHz

1 transmitter · refreshed weekly from db.satnogs.org